[[{"header":{"parameterUnit":"m.s-1","parameterCategory":1,"la1":30.2992,"la2":30.254,"lo1":-89.0895,"lo2":-89.0443,"dy":0.0025,"dx":0.0025,"nx":19,"ny":19,"refTime":"2026-03-26T09:00:00:Z","depth":0,"parameterNumber":2,"parameterNumberName":"U-component_of_WINDS"},"data":[0,0,0,-2.5691,-2.5693,-2.5759,-2.5759,-2.586,-2.5861,0,0,0,0,0,0,0,0,0,0,0,-2.5682,-2.5683,-2.5691,-2.5693,-2.5759,-2.5759,-2.586,-2.5861,0,0,0,0,0,0,0,0,0,0,0,-2.5681,-2.5683,-2.5684,-2.5694,-2.5759,-2.5759,-2.586,-2.5804,0,0,0,0,0,0,0,0,0,0,-2.5738,-2.5738,-2.5682,-2.5684,-2.5694,-2.5759,-2.5759,-2.5801,-2.5808,-2.5838,0,-2.5867,0,-2.5866,-2.5869,-2.587,0,0,0,-2.5686,-2.5733,-2.5742,-2.5684,-2.5695,-2.5758,-2.5727,-2.5805,-2.5812,-2.5847,-2.5868,-2.5871,-2.5867,-2.587,-2.587,-2.6069,-2.607,0,0,-2.5682,-2.5699,-2.5737,-2.5747,-2.5737,-2.5725,-2.5729,-2.5809,-2.5833,-2.5868,-2.5873,-2.5869,-2.5871,-2.5872,-2.6068,-2.6069,0,0,0,-2.5677,-2.5697,-2.5703,-2.5743,-2.5754,-2.5727,-2.5732,-2.583,-2.583,-2.5874,-2.587,-2.5871,-2.5873,-2.6067,-2.6069,-2.6148,0,0,0,-2.5674,-2.5693,-2.5702,-2.5713,-2.5753,-2.5792,-2.5751,-2.5825,-2.5833,-2.587,-2.5871,-2.5874,-2.6065,-2.6068,-2.6142,-2.6182,0,0,0,-2.5674,-2.5693,-2.5706,-2.5713,-2.5742,-2.5791,-2.5796,-2.5826,-2.5832,-2.587,-2.5874,-2.6064,-2.6067,-2.6138,-2.6174,-2.624,0,0,0,-2.5679,-2.5774,-2.5707,-2.5813,-2.5742,-2.5839,-2.5795,-2.5866,-2.5909,-2.5872,-2.6065,-2.6068,-2.6136,-2.617,-2.6235,-2.6299,-2.6326,0,0,-2.5808,-2.579,-2.5851,-2.5794,-2.5907,-2.5828,-2.5953,-2.5976,-2.5964,-2.6035,-2.604,-2.6144,-2.6174,-2.6239,-2.6476,-2.6499,0,0,0,-2.5898,-2.5942,-2.5968,-2.601,-2.603,-2.6052,-2.6054,-2.6063,-2.6122,-2.6004,-2.6185,-2.6202,-2.624,-2.6269,-2.6288,-2.632,-2.6083,-2.6082,-2.6082,-2.6104,-2.6085,-2.6186,-2.6176,-2.6217,-2.622,-2.6252,-2.6264,-2.6232,-2.6276,-2.6296,-2.6443,-2.6478,-2.6492,-2.6526,-2.6328,-2.6329,-2.6329,-2.6329,-2.6292,-2.6352,-2.631,-2.6392,-2.6373,-2.6442,-2.645,-2.6426,-2.6488,-2.6425,-2.6457,-2.6389,-2.6517,-2.6545,-2.6335,-2.6334,-2.6333,-2.6333,-2.6332,-2.6425,-2.6451,-2.6461,-2.6521,-2.657,-2.6557,-2.662,-2.66,-2.6581,-2.6613,-2.6634,-2.6633,-2.6629,-2.6625,-2.6625,-2.6626,-2.6626,-2.6627,-2.6627,-2.6558,-2.6568,-2.6623,-2.6655,-2.6681,-2.6712,-2.6718,-2.6743,-2.6766,-2.6746,-2.6746,-2.6712,-2.6533,-2.6489,-2.6635,-2.6633,-2.6632,-2.6631,-2.6631,-2.6756,-2.6709,-2.6794,-2.682,-2.6858,-2.6909,-2.6884,-2.6937,-2.6955,-2.6987,-2.6946,-2.6817,-2.6797,-2.6782,-2.6745,-2.6949,-2.6949,-2.6949,-2.6949,-2.6868,-2.6857,-2.6941,-2.6984,-2.7024,-2.7011,-2.711,-2.7118,-2.7118,-2.7128,-2.7096,-2.7046,-2.7031,-2.702,-2.7,-2.6965,-2.722,-2.722,-2.7221,-2.6989,-2.6981,-2.7068,-2.7068,-2.7098,-2.7124,-2.7217,-2.727,-2.726,-2.7231,-2.7136,-2.7125,-2.7044,-2.7018,-2.6985,-2.6954,-2.689,0,0]},{"header":{"parameterUnit":"m.s-1","parameterCategory":1,"la1":30.2992,"la2":30.254,"lo1":-89.0895,"lo2":-89.0443,"dy":0.0025,"dx":0.0025,"nx":19,"ny":19,"refTime":"2026-03-26T09:00:00:Z","depth":0,"parameterNumber":3,"parameterNumberName":"V-component_of_WINDS"},"data":[0,0,0,1.0746,1.0745,1.0727,1.0727,1.0696,1.0695,0,0,0,0,0,0,0,0,0,0,0,1.0748,1.0748,1.0746,1.0745,1.0727,1.0727,1.0696,1.0695,0,0,0,0,0,0,0,0,0,0,0,1.0748,1.0748,1.0748,1.0745,1.0727,1.0727,1.0696,1.0712,0,0,0,0,0,0,0,0,0,0,1.0732,1.0731,1.0748,1.0748,1.0745,1.0727,1.0727,1.0713,1.0711,1.0702,0,1.0693,0,1.0694,1.0693,1.0693,0,0,0,1.0747,1.0732,1.073,1.0748,1.0745,1.0727,1.0736,1.0712,1.071,1.0699,1.0693,1.0692,1.0694,1.0693,1.0693,1.0635,1.0634,0,0,1.0748,1.0743,1.0732,1.0729,1.0733,1.0736,1.0735,1.0711,1.0703,1.0693,1.0691,1.0693,1.0693,1.0692,1.0635,1.0634,0,0,0,1.075,1.0743,1.0742,1.073,1.0727,1.0736,1.0734,1.0704,1.0705,1.0691,1.0693,1.0692,1.0692,1.0635,1.0635,1.0611,0,0,0,1.0751,1.0744,1.0743,1.0739,1.0728,1.0716,1.0728,1.0706,1.0704,1.0693,1.0692,1.0692,1.0636,1.0635,1.0613,1.06,0,0,0,1.075,1.0744,1.0741,1.0738,1.073,1.0716,1.0715,1.0706,1.0704,1.0693,1.0692,1.0636,1.0635,1.0614,1.0602,1.0583,0,0,0,1.0748,1.0719,1.074,1.0708,1.0731,1.0703,1.0715,1.0694,1.0682,1.0692,1.0636,1.0635,1.0615,1.0604,1.0585,1.0565,1.0557,0,0,1.0708,1.0714,1.0696,1.0714,1.0681,1.0706,1.0669,1.0662,1.0666,1.0645,1.0643,1.0612,1.0603,1.0583,1.0515,1.0508,0,0,0,1.0681,1.0668,1.066,1.0649,1.0644,1.0639,1.0639,1.0637,1.062,1.0654,1.0601,1.0595,1.0584,1.0575,1.0569,1.056,1.0631,1.0631,1.0631,1.0614,1.0622,1.0592,1.0599,1.0588,1.0589,1.0581,1.0578,1.0587,1.0575,1.0568,1.0525,1.0515,1.051,1.0501,1.056,1.056,1.0559,1.0559,1.0555,1.0537,1.0554,1.0531,1.0539,1.052,1.0521,1.0529,1.0512,1.0531,1.0521,1.054,1.0503,1.0495,1.0558,1.0558,1.0558,1.0558,1.0558,1.051,1.0503,1.0503,1.0488,1.0476,1.0484,1.0467,1.0476,1.0483,1.0474,1.0468,1.0468,1.0469,1.0471,1.0471,1.0471,1.0471,1.0471,1.0471,1.0464,1.0464,1.045,1.0444,1.0439,1.0433,1.0436,1.0431,1.0427,1.0434,1.0434,1.0445,1.0499,1.0511,1.0468,1.0469,1.0469,1.0469,1.0469,1.0398,1.0415,1.0392,1.0387,1.0382,1.037,1.0383,1.0372,1.0369,1.036,1.0374,1.0413,1.0419,1.0423,1.0433,1.0373,1.0373,1.0373,1.0373,1.0359,1.0365,1.0344,1.0336,1.0329,1.0338,1.0312,1.0315,1.032,1.0319,1.0329,1.0344,1.0349,1.0352,1.0358,1.0368,1.0292,1.0292,1.0292,1.0319,1.0324,1.03,1.0308,1.0305,1.0303,1.0279,1.0268,1.0277,1.0289,1.0318,1.0321,1.0346,1.0353,1.0363,1.0372,1.039,0,0]}]]